This is the latest recevied weather packets stored in our database for station/object AF5AA. If no packets are shown the sender has not sent any weather packets the latest 10 day(s).
| Time | Temp. | Humidity | Pressure | Rain* | Wind** | Luminosity | Snow |
|---|---|---|---|---|---|---|---|
| 1777945859 | 21.67° C | 77% | 1008.1 hPa | 0 mm | - | 0 W/m² | - |
| 1777945555 | 21.67° C | 76% | 1007.9 hPa | 0 mm | - | 0 W/m² | - |
| 1777945253 | 21.67° C | 76% | 1008.1 hPa | 0 mm | - | 0 W/m² | - |
| 1777944950 | 21.67° C | 77% | 1007.6 hPa | 0 mm | - | 0 W/m² | - |
| 1777944647 | 21.67° C | 77% | 1007.8 hPa | 0 mm | - | 0 W/m² | - |
| 1777944345 | 22.22° C | 75% | 1007.9 hPa | 0 mm | - | 0 W/m² | - |
| 1777944042 | 22.22° C | 75% | 1007.7 hPa | 0 mm | - | 0 W/m² | - |
| 1777943737 | 22.22° C | 73% | 1007.7 hPa | 0 mm | - | 0 W/m² | - |
| 1777943435 | 22.78° C | 72% | 1007.8 hPa | 0 mm | - | 0 W/m² | - |
| 1777943130 | 22.78° C | 72% | 1007.8 hPa | 0 mm | - | 1 W/m² | - |
| 1777942827 | 22.78° C | 71% | 1007.6 hPa | 0 mm | - | 1 W/m² | - |
| 1777942523 | 23.33° C | 69% | 1007.6 hPa | 0 mm | - | 2 W/m² | - |
| 1777942221 | 23.33° C | 70% | 1007.7 hPa | 0 mm | - | 3 W/m² | - |
| 1777941917 | 23.33° C | 70% | 1007.6 hPa | 0 mm | - | 5 W/m² | - |
| 1777941614 | 23.33° C | 69% | 1007.4 hPa | 0 mm | - | 6 W/m² | - |
| 1777941311 | 23.89° C | 68% | 1007.6 hPa | 0 mm | - | 8 W/m² | - |
| 1777941009 | 23.89° C | 67% | 1007.6 hPa | 0 mm | - | 9 W/m² | - |
| 1777940704 | 23.89° C | 65% | 1007.5 hPa | 0 mm | - | 11 W/m² | - |
| 1777940403 | 24.44° C | 63% | 1007.7 hPa | 0 mm | - | 12 W/m² | - |
| 1777940100 | 24.44° C | 64% | 1007.7 hPa | 0 mm | - | 14 W/m² | - |
| 1777939796 | 25° C | 61% | 1007.8 hPa | 0 mm | - | 12 W/m² | - |
| 1777939494 | 25° C | 60% | 1008 hPa | 0 mm | - | 15 W/m² | - |
| 1777939191 | 25° C | 58% | 1008 hPa | 0 mm | - | 17 W/m² | - |
| 1777938888 | 25° C | 60% | 1007.8 hPa | 0 mm | - | 17 W/m² | - |
| 1777938585 | 25° C | 60% | 1008 hPa | 0 mm | - | 21 W/m² | - |
* Rain latest hour (hover to see other rain measurements)
** Current wind speed in m/s (hover to see current wind gust speed)